Terug naar catalogus

STARLINK-30499

ActiefCommunicatieVLEO
NORAD 57918·PAYLOAD·🇺🇸 United States

Gelanceerd Sep 24, 2023 vanaf Cape Canaveral Space Force Station

Loading…

Volgende Passages (komende 24 uur)

TLE

VersSource: CelesTrak SupGP

Epoch: Sep 15, 2026, 03:19 UTC

1 57918C 23147F   26258.13868056  .00023962  00000+0  86782-3 0  2580
2 57918  43.0020 190.3147 0001155 271.6950 158.8888 15.27569317    11

Volg STARLINK-30499 in realtime met AllMySat

Download on the App Store